Location: Shenandoah County Park
(38.9356°N, 78.4524°W)
Time: 08:46:29
(UTC-04:00)

Vanguard 1 - Pass Details

Date: 03 February 2023
Orbit: 648 x 3832 km, 34.3° (Epoch: 01 April)

Event Time Altitude Azimuth Distance (km) Brightness Sun altitude
Exits shadow 06:09:33 12° 249° (WSW) 3,022 12.1 -13.7°
Maximum altitude 06:17:04 67° 168° (SSE) 1,869 11.5 -12.3°
Drops below altitude 10° 06:31:59 10° 91° (E) 5,640 15.4 -9.5°
Sets 06:37:25 0° 90° (E) 7,109 16.3 -8.4°
